sanya , China , ASIA

  • Sunday
    January 26

    Light rain  Overcast

    75 °F  64 °F

    No wind  No wind

        

  • Monday
    January 27

    Light rain  Overcast

    72 °F  63 °F

    East  Northeast

    3~4L   3~4L 

  • Tuesday
    January 28

    Cloudy  Cloudy

    75 °F  63 °F

    East  Northeast

    3~4L   3~4L 

  • Wednesday
    January 29

    Cloudy  Cloudy

    77 °F  63 °F

    East  Northeast

    3~4L   3~4L 

  • Thursday
    January 30

    Cloudy  Cloudy

    77 °F  63 °F

    Northeast  Northeast

    3~4L   3~4L 

  • Friday
    January 31

    Cloudy  Cloudy

    77 °F  64 °F

    East  Northeast

    3~4L   3~4L 

  • Saturday
    February 1

    Light rain  Light rain

    79 °F  66 °F

    East  No wind

    3~4L    

Date   Weather Temperature Humidity Total_rain Visibility Wind
11:00 Light rain 70°F 98% 2.3mm 999.9km Northeast  3.1m/s
14:00 Light rain 75°F 95% 2.3mm 999.9km Northeast  3.2m/s
17:00 Light rain 74°F 92% 2.3mm 999.9km Northeast  3.0m/s
20:00 Light rain 73°F 96.7% 2.3mm 999.9km Northeast  4.3m/s
23:00 Overcast 66°F 97.9% 0mm 999.9km Northeast  5.2m/s
02:00 Overcast 66°F 97.3% 0mm 999.9km Northeast  5.8m/s
05:00 Overcast 65°F 95.5% 0mm 999.9km Northeast  3.0m/s
08:00 Overcast 68°F 93.8% 0mm 999.9km Northeast  4.3m/s
11:00 Cloudy 68°F 83.9% 0mm 999.9km Northeast  4.6m/s
14:00 Overcast 72°F 93.1% 0mm 999.9km Northeast  4.1m/s
17:00 Light rain 70°F 94.6% 0.3mm 999.9km Northeast  3.9m/s
20:00 Light rain 65°F 96.1% 0.7mm 999.9km Northeast  6.5m/s
23:00 Overcast 65°F 98% 0mm 999.9km Northeast  6.9m/s
02:00 Overcast 65°F 96.3% 0mm 999.9km Northeast  6.8m/s
05:00 Overcast 65°F 95.7% 0mm 999.9km Northeast  6.2m/s
08:00 Overcast 69°F 84.6% 0mm 999.9km Northeast  7.6m/s
11:00 Cloudy 74°F 90% 0mm 999.9km Northeast  5.7m/s
14:00 Cloudy 76°F 95.5% 0mm 999.9km Northeast  5.0m/s
17:00 Cloudy 72°F 95.8% 0mm 999.9km Northeast  3.0m/s
20:00 Cloudy 69°F 96.4% 0mm 999.9km Northeast  5.7m/s
23:00 Cloudy 69°F 96.9% 0mm 999.9km Northeast  6.4m/s
02:00 Cloudy 67°F 98% 0mm 999.9km Northeast  7.9m/s
05:00 Cloudy 64°F 96% 0mm 999.9km Northeast  5.2m/s
08:00 Cloudy 65°F 90.1% 0mm 999.9km Northeast  5.6m/s
11:00 Cloudy 72°F 90.7% 0mm 999.9km Northeast  5.7m/s
14:00 Cloudy 77°F 91.5% 0mm 999.9km Northeast  5.7m/s
17:00 Cloudy 73°F 92.3% 0mm 999.9km Northeast  4.7m/s
20:00 Cloudy 72°F 94% 0mm 999.9km Northeast  6.0m/s
23:00 Cloudy 72°F 95.7% 0mm 999.9km Northeast  7.0m/s
02:00 Cloudy 69°F 98% 0mm 999.9km Northeast  7.2m/s
05:00 Cloudy 64°F 95.9% 0mm 999.9km Northeast  7.5m/s
08:00 Cloudy 64°F 94.9% 0mm 999.9km Northeast  6.9m/s
11:00 Cloudy 76°F 88.5% 0mm 999.9km Northeast  6.0m/s
14:00 Cloudy 77°F 89% 0mm 999.9km Northeast  5.2m/s
17:00 Cloudy 74°F 91.7% 0mm 999.9km Northeast  4.5m/s
20:00 Cloudy 69°F 94.3% 0mm 999.9km Northeast  4.9m/s
23:00 Cloudy 66°F 97% 0mm 999.9km Northeast  6.6m/s
02:00 Cloudy 64°F 98% 0mm 999.9km Northeast  6.2m/s
05:00 Cloudy 64°F 90.9% 0mm 999.9km Northeast  6.5m/s
08:00 Cloudy 65°F 77.9% 0mm 999.9km Northeast  7.2m/s
11:00 Cloudy 72°F 79.4% 0mm 999.9km Northeast  5.9m/s
14:00 Cloudy 77°F 79.4% 0mm 999.9km Northeast  5.1m/s
17:00 Cloudy 69°F 88.7% 0mm 999.9km Northeast  6.5m/s
20:00 Cloudy 69°F 91% 0mm 999.9km Northeast  5.5m/s
23:00 Cloudy 68°F 93.2% 0mm 999.9km Northeast  5.7m/s
02:00 Cloudy 65°F 96.4% 0mm 999.9km Northeast  6.8m/s
05:00 Cloudy 67°F 94.1% 0mm 999.9km Northeast  8.3m/s
08:00 Cloudy 68°F 75% 0mm 999.9km Northeast  8.4m/s
11:00 Light rain 75°F 75.5% 0.1mm 999.9km Northeast  5.9m/s
14:00 Cloudy 79°F 84.3% 0mm 999.9km Northeast  5.4m/s
17:00 Light rain 74°F 90.2% 0.3mm 999.9km Southeast  1.9m/s
20:00 Overcast 68°F 95.5% 0mm 999.9km Northeast  6.1m/s
23:00 Light rain 67°F 96.8% 0.2mm 999.9km Southeast  5.6m/s
02:00 Light rain 67°F 97.8% 0.1mm 999.9km Northeast  6.4m/s
05:00 Light rain 67°F 96.8% 0.2mm 999.9km Southeast  5.4m/s